Vertical_Velocity
0 1 0 -1 -0 0 0 -0 -2 -2 0 0 1 -1 1 -0 -2 -1 -0 -0 -1 -0 -2 -3 -1 -1 2 2 -0 -1 0 -0 0 -1 -2 -2 -2 2 -1 -1 -3 0 3 -3 -5
0 1 1 0 -0 -0 1 1 -0 -2 -3 2 1 -0 0 -0 -1 -1 -0 -0 -0 -1 -1 0 -0 0 2 1 1 3 1 -1 2 -0 -3 -3 -2 -4 1 -0 -1 -2 4 2 -1
1 1 0 0 -1 0 0 1 0 -0 -3 -2 1 1 0 1 -2 -1 -0 0 -1 -0 -1 0 2 -0 1 2 3 1 1 -1 -1 -0 -2 -1 -1 -4 -2 1 -2 -1 -5 -2 -1
0 0 0 -0 1 0 -0 0 -1 0 -1 -2 -2 0 2 1 -0 -2 -0 -0 1 3 1 2 -0 2 -0 1 1 -1 3 -1 -1 -1 -1 -1 -1 -4 -2 -0 0 2 -0 -3 -1
1 -0 1 0 -1 -0 0 0 0 0 -0 -0 -2 -1 1 -0 1 -0 -1 1 1 -0 1 -1 -1 -1 0 -1 2 3 1 0 -2 2 -1 1 -2 -3 -4 -1 -2 -0 3 -1 0
-0 0 0 0 -1 -1 -0 -1 1 1 0 -0 -1 -2 -1 -1 2 1 -0 -0 -2 -2 -3 -4 -3 0 -0 -1 -1 0 2 1 1 0 0 1 -0 -2 -3 -3 -1 -1 0 2 -2
1 0 1 -0 0 -1 0 -1 -0 0 -0 -1 0 -1 -0 -3 -1 2 1 0 0 -1 1 -2 -2 -0 2 0 -1 2 1 2 1 0 0 1 0 -0 -1 -3 -1 -1 -2 -2 0
0 -0 0 -0 0 -0 -1 -0 -1 -1 -0 -1 -1 -1 3 1 -1 -1 4 1 -1 -0 2 2 -0 1 2 -0 -0 1 -4 0 1 -1 -0 -1 1 -1 -2 -2 -1 -1 -1 -1 -1
-0 -1 0 -0 -0 1 -0 -1 -0 -1 -0 -1 -1 -2 0 1 1 -0 -1 2 2 1 1 1 1 2 0 -0 1 -1 1 -0 -3 -2 -2 -1 -1 1 -0 -1 -1 1 -1 -2 -0
0 -0 -1 1 0 -0 -0 -1 -0 -1 -0 0 -1 -3 -1 -1 2 0 -0 -1 0 -0 1 1 -0 -0 -2 -2 -0 -1 -0 0 0 -3 -1 -1 -2 -2 2 1 -0 -0 2 -0 -2
0 1 1 0 -0 -1 -1 -1 -0 -1 -1 -1 -1 -3 -1 -3 1 1 3 -0 1 -1 -1 -2 -1 -0 -1 -2 2 1 0 1 3 0 -1 -2 -1 -1 -2 -0 -1 -0 0 -0 -1
-1 -0 1 1 0 -0 -0 -1 -1 0 -1 -1 -0 1 -1 -1 -2 -0 -2 -1 -1 -0 -2 -1 -2 -0 -2 -1 0 -2 1 2 3 1 1 -1 -2 -0 -1 -1 -3 -2 -1 0 1
-1 -0 0 0 -1 -1 0 -0 -1 -1 1 -0 -1 -2 -1 -2 -2 -1 -1 -1 -1 -1 -1 -1 -0 1 -1 -0 0 1 -1 -2 -1 -0 -0 0 -1 -1 -1 0 1 -0 -2 -2 -1
-0 -0 0 -0 -1 -1 0 0 -0 -0 1 0 -0 -1 -0 0 0 -1 -0 -1 -0 -1 -0 -0 1 2 0 0 0 -2 -1 0 -0 -0 0 0 -3 -3 1 -1 -1 -0 2 -1 0
1 -0 0 -0 -1 -2 -1 -1 -0 0 0 -0 -0 1 -1 -2 -0 -0 -1 -1 -1 -0 1 -2 -0 1 -0 -1 -1 -2 2 2 1 1 0 1 0 1 -1 -0 -1 -1 -3 -2 -2
-0 1 0 0 0 -1 -2 -1 -1 -1 -2 -1 1 0 1 1 1 -0 -1 -1 -2 -1 0 0 0 1 -0 0 -0 -1 -1 1 -1 2 5 -4 -2 3 -1 -1 -2 0 -1 1 -1
-1 1 1 -0 0 0 -0 -1 -1 -0 1 -1 -1 0 0 0 1 -0 0 -1 -2 -3 -2 -3 0 -1 -1 -0 -1 -1 -1 -1 -1 -2 2 -0 -0 7 1 2 -1 -2 -5 -2 1
-0 -0 1 0 0 -0 -0 1 1 1 0 -1 -2 -1 -2 -0 -1 -0 -0 -1 1 -2 -3 -2 -2 -3 1 -0 -2 -1 -1 -1 -1 1 -1 2 3 -2 3 5 -0 0 0 -1 -2
2 -0 -1 -1 1 -0 0 0 3 2 1 0 -0 -1 0 -0 -0 1 1 -0 0 2 1 -1 -3 -3 -2 0 -1 3 -2 -2 -2 1 1 2 4 1 0 0 -0 -0 -1 -2 2
-0 1 -0 -0 -1 -0 -2 1 1 -0 -0 1 1 0 0 2 3 1 -1 0 0 1 -1 0 -0 -1 -0 -0 -1 -2 1 -2 -1 -5 -3 0 2 6 2 -1 -1 1 -0 -1 -1
0 2 1 -0 0 -2 -2 0 -1 0 1 0 3 2 0 -1 0 1 -3 1 -0 0 -0 3 0 1 -2 2 1 -0 -2 -1 -1 -4 -3 -1 5 1 3 2 3 2 2 1 1
0 0 2 1 -0 -0 -1 1 2 3 1 -2 -1 1 2 2 0 -1 -2 4 3 0 -0 -0 3 5 -2 -2 -0 -2 1 -1 -2 2 -4 -5 15 -4 4 3 0 -2 -0 1 1
0 -1 1 1 -1 0 -0 -0 -0 1 2 -0 1 1 0 -0 -1 0 2 1 2 4 -2 1 -3 -2 6 1 -2 -1 -0 -1 -5 1 -3 -4 11 9 -2 1 1 8 1 -0 2
0 -1 1 0 1 1 1 1 -0 1 -1 0 1 4 3 1 -1 -3 -2 -2 1 -0 -1 -1 -1 -0 -1 0 3 3 -1 -2 -2 -7 3 -1 -4 11 8 -2 -2 -0 7 4 1
1 -0 1 -0 -2 -0 1 3 1 1 1 -2 -1 2 2 0 2 -2 -2 1 -0 -1 -1 -3 -1 -2 -1 0 -1 -0 2 0 -0 0 -20 11 -11 3 3 4 -1 1 -1 3 3
-1 1 0 2 1 -0 -2 0 -1 -3 2 3 3 -2 0 -0 2 -1 2 -1 -3 0 -2 -3 -11 -5 -1 -2 -4 -5 -1 -1 -2 2 -4 -4 -2 -26 10 -4 4 2 2 2 4
-2 -1 0 -0 0 1 -0 0 0 -2 1 4 -0 0 -1 3 2 -1 2 -0 -1 -1 -2 -0 -1 -2 1 4 -1 -15 1 -5 5 2 1 -1 -3 2 -3 6 -0 4 6 -1 1
Height
5894 5896 5897 5899 5900 5900 5901 5902 5902 5902 5902 5902 5902 5903 5904 5905 5905 5905 5906 5906 5906 5905 5906 5907 5908 5907 5908 5907 5906 5906 5907 5906 5904 5903 5902 5901 5900 5901 5902 5902 5904 5906 5907 5908 5910
5894 5895 5896 5898 5900 5900 5901 5901 5902 5903 5904 5903 5903 5904 5905 5905 5906 5906 5908 5908 5908 5909 5909 5910 5911 5910 5911 5910 5909 5910 5910 5908 5907 5906 5904 5904 5903 5903 5905 5904 5906 5909 5910 5912 5913
5893 5895 5896 5898 5899 5900 5901 5902 5901 5902 5903 5905 5905 5904 5906 5905 5907 5907 5909 5910 5911 5911 5912 5912 5913 5914 5914 5914 5914 5913 5912 5911 5911 5910 5909 5908 5907 5906 5906 5907 5908 5912 5913 5915 5916
5894 5895 5896 5898 5898 5900 5901 5901 5902 5902 5903 5905 5907 5906 5907 5907 5909 5907 5909 5910 5912 5914 5914 5915 5916 5916 5916 5917 5916 5915 5916 5915 5913 5913 5912 5912 5910 5908 5908 5909 5911 5913 5916 5917 5919
5893 5894 5895 5897 5898 5899 5900 5901 5901 5902 5903 5904 5907 5908 5909 5909 5908 5907 5909 5911 5912 5913 5913 5914 5914 5916 5917 5917 5918 5918 5919 5917 5917 5916 5915 5915 5914 5913 5912 5911 5912 5915 5917 5919 5921
5892 5894 5895 5896 5897 5898 5900 5900 5901 5902 5904 5905 5906 5908 5910 5911 5910 5908 5908 5911 5911 5912 5912 5914 5916 5916 5918 5919 5919 5919 5920 5920 5920 5919 5918 5918 5917 5917 5916 5915 5915 5916 5918 5920 5922
5890 5892 5893 5895 5896 5897 5898 5899 5900 5902 5904 5905 5905 5907 5909 5911 5911 5910 5909 5911 5912 5913 5913 5914 5917 5918 5919 5920 5920 5921 5920 5920 5920 5920 5920 5919 5920 5919 5918 5919 5920 5919 5919 5921 5924
5889 5890 5892 5893 5894 5895 5896 5898 5899 5901 5903 5904 5905 5907 5908 5910 5912 5912 5912 5912 5912 5913 5915 5915 5916 5918 5919 5920 5921 5921 5921 5921 5921 5921 5921 5922 5922 5922 5920 5921 5923 5924 5924 5924 5926
5888 5889 5889 5891 5892 5894 5895 5897 5898 5900 5901 5902 5904 5905 5907 5909 5911 5912 5913 5914 5913 5914 5914 5915 5915 5916 5918 5919 5920 5920 5921 5921 5920 5920 5921 5922 5922 5923 5923 5922 5924 5927 5929 5929 5928
5888 5889 5889 5889 5890 5892 5894 5895 5896 5898 5899 5900 5902 5905 5906 5907 5909 5911 5913 5914 5913 5913 5914 5914 5914 5915 5916 5918 5920 5920 5920 5920 5921 5921 5921 5921 5922 5924 5924 5924 5925 5927 5929 5931 5931
5889 5889 5889 5889 5890 5891 5893 5894 5896 5898 5898 5899 5901 5902 5903 5905 5907 5909 5911 5914 5914 5914 5914 5914 5914 5915 5915 5917 5919 5920 5920 5920 5921 5921 5922 5922 5922 5923 5924 5925 5925 5927 5929 5930 5930
5890 5890 5890 5890 5891 5892 5893 5895 5895 5897 5898 5898 5900 5902 5903 5904 5906 5907 5909 5911 5912 5913 5914 5915 5914 5915 5915 5916 5918 5920 5921 5922 5922 5921 5921 5921 5921 5921 5923 5925 5925 5926 5927 5928 5930
5890 5890 5891 5891 5892 5893 5894 5894 5895 5896 5897 5898 5900 5901 5903 5904 5905 5906 5907 5909 5910 5912 5912 5913 5915 5915 5915 5916 5917 5918 5919 5921 5922 5921 5921 5922 5922 5922 5922 5924 5925 5926 5926 5926 5928
5889 5889 5890 5891 5893 5892 5893 5894 5895 5896 5897 5900 5901 5902 5903 5903 5904 5905 5906 5908 5908 5910 5911 5913 5914 5916 5916 5916 5917 5917 5918 5919 5921 5922 5923 5923 5924 5924 5925 5926 5925 5926 5926 5926 5926
5887 5887 5888 5890 5891 5891 5893 5893 5894 5895 5897 5900 5900 5901 5903 5904 5905 5905 5906 5906 5907 5909 5912 5913 5914 5916 5916 5916 5916 5917 5918 5920 5921 5922 5923 5923 5924 5925 5925 5926 5926 5926 5926 5926 5926
5884 5885 5886 5888 5889 5890 5890 5892 5893 5896 5895 5897 5898 5900 5901 5902 5903 5904 5905 5906 5907 5908 5909 5910 5912 5914 5914 5915 5915 5915 5916 5918 5919 5920 5922 5919 5921 5923 5924 5925 5925 5925 5925 5926 5925
5880 5882 5883 5884 5886 5887 5888 5889 5891 5892 5894 5896 5897 5897 5899 5900 5902 5903 5905 5905 5905 5906 5907 5908 5909 5910 5911 5913 5913 5913 5915 5916 5917 5918 5919 5917 5919 5922 5922 5923 5923 5923 5924 5925 5926
5876 5877 5879 5880 5881 5882 5884 5886 5887 5889 5891 5892 5893 5894 5895 5897 5899 5901 5902 5903 5903 5903 5904 5906 5907 5908 5909 5909 5910 5911 5913 5914 5914 5916 5917 5916 5918 5919 5920 5922 5922 5922 5922 5923 5924
5871 5872 5874 5875 5876 5878 5880 5880 5882 5884 5887 5888 5888 5889 5891 5893 5896 5897 5898 5899 5900 5901 5902 5902 5903 5904 5905 5907 5908 5909 5909 5911 5912 5913 5914 5916 5918 5917 5918 5919 5920 5920 5920 5920 5921
5866 5867 5868 5869 5871 5872 5873 5875 5877 5878 5880 5883 5883 5884 5886 5888 5891 5891 5892 5893 5895 5896 5898 5900 5900 5901 5903 5904 5905 5906 5907 5907 5907 5908 5910 5912 5914 5916 5916 5916 5916 5917 5917 5917 5917
5860 5861 5863 5864 5865 5866 5867 5868 5870 5872 5873 5876 5878 5879 5880 5882 5885 5886 5886 5888 5888 5891 5892 5895 5896 5899 5898 5900 5900 5902 5903 5903 5902 5904 5905 5908 5912 5912 5913 5913 5915 5915 5916 5915 5916
5854 5856 5857 5857 5860 5860 5861 5862 5864 5865 5867 5868 5871 5873 5874 5875 5877 5879 5880 5881 5883 5884 5885 5888 5890 5893 5893 5894 5894 5896 5898 5898 5897 5899 5899 5901 5908 5907 5908 5909 5909 5910 5910 5911 5912
5847 5849 5851 5851 5852 5853 5854 5855 5856 5858 5860 5861 5862 5864 5866 5867 5869 5870 5872 5874 5876 5878 5878 5880 5880 5884 5888 5889 5888 5888 5890 5891 5892 5891 5892 5893 5902 5903 5902 5902 5903 5906 5906 5907 5908
5841 5842 5843 5844 5845 5846 5847 5848 5849 5850 5851 5853 5854 5856 5857 5858 5859 5860 5862 5864 5867 5868 5869 5870 5872 5874 5877 5880 5881 5881 5882 5881 5881 5881 5886 5884 5891 5894 5896 5894 5894 5897 5900 5902 5902
5833 5833 5835 5836 5837 5838 5838 5839 5840 5841 5842 5843 5844 5845 5846 5848 5849 5850 5851 5852 5854 5855 5857 5859 5860 5862 5864 5866 5867 5870 5872 5872 5871 5873 5870 5879 5878 5885 5885 5887 5889 5891 5892 5894 5896
5824 5825 5826 5827 5828 5829 5829 5831 5830 5831 5833 5833 5834 5835 5836 5837 5838 5839 5841 5842 5842 5843 5844 5844 5845 5847 5849 5852 5852 5853 5856 5859 5861 5861 5860 5864 5867 5870 5875 5877 5880 5881 5884 5886 5888
5814 5815 5816 5817 5818 5819 5820 5820 5820 5821 5822 5822 5823 5824 5826 5827 5827 5828 5830 5831 5831 5832 5832 5833 5833 5834 5837 5837 5837 5836 5842 5845 5846 5847 5851 5851 5856 5859 5862 5863 5868 5872 5874 5876 5879